STARLINK-2338, 47793

Orbit data source: Space-Track

STARLINK-2338, 47793 is a payload satellite owned by SpaceX/Seattle (US) in LEO that was launched on Thu, 11 Mar 2021 UTC via an FALCON 9 launch vehicle from the Air Force Eastern Test Range (AFETR). Payload-class satellites include a variety of spacecraft equipped with specific instruments for various scientific and technological missions. These include communications satellites like Starlink; space stations such as the ISS; scientific satellites like the Hubble; Earth observation satellites from companies like Planet Labs, Umbra, and HawkEye 360; GPS; miniature CubeSats for education and research; and military/defense satellites.

Loading next visibility...
Identifier
47793, 2021-018G
Orbit
LEO
Country
Flag of USUS
Related business
Manufacturer
SpaceX/Seattle
Mission
Operational Commercial Communications
Bus & Motor
STARLINK, Unknown motor
Mass
260 kg wet, ~248 kg dry
Launch date (UTC)
2021-03-11 (5 years ago)
Launch vehicle
FALCON 9
Launch site
Air Force Eastern Test Range (AFETR)
Object type
Payload
Rocket body
Debris
Shape & HBR
Box + 1 Pan, 10.1 m
Radar Cross Section
13.562 m², Large (>1 m²)

Expand to show TLE details & history
Last TLE update: 11 hours ago

TLE from 11 hours ago
0 STARLINK-2338
1 47793U 21018G   26035.27853563  .00001098  00000-0  92565-4 0  9996
2 47793  53.0556  21.6076 0001434 100.1343 259.9808 15.06407780271832
Epoch: 2026-02-04T06:41Z
TLE epoch observation values (Epoch: 2026-02-04T06:41:05.478Z)
Latitude
-0°
Longitude
146.88737°
Altitude
548.24 km
Speed
7.589 km/s
True Right ascension
01h 26m 25s
True Declination
0° 00' 00"
Sunlit
Object was in daylight at epoch
Visualization orbit readout
Latitude
Unknown
Longitude
Unknown
Altitude
Unknown
Speed
Unknown
Apparent Right ascension
Unknown
Apparent Declination
Unknown
Sunlit
N/A
Visualization observer readout
Local Sidereal Time
20:03:54
Azimuth
Unknown
Elevation
Unknown
Doppler factor
Unknown
Orbital elements
Apogee altitude
548.451 km
Perigee altitude
546.465 km
Semi-major axis
6,925.595 km
Eccentricity
0.00014
Inclination
53.0556°
RAAN
21.6076°
Arg. of periapsis
100.1343°
True anomaly
259.96462°
Mean anomaly
259.9808°
Eccentric anomaly
259.97271°
Mean motion
3.7658 °/min
Orbital period
95.6 mins
BSTAR
0.000092565
Loading maneuver chart data...
Computing Atmospheric mass density...
Loading historical data...
Loading historical data...
Loading historical data...
Loading historical data...
Loading historical data...
Loading historical data...
Loading historical data...

Documentation

Showing up to 5 results
|